DW3024 Weather Reports


time (UTC)temp
F
wind
direction
speed
knots
gust
knots
rain 1hr
in
rain 24hr
in
rain mn
in
humidity
%
barometer
mb
20260906120423 71 329 0.9 1.7 0.00 0.00 0.00 93 1011.1
20260906115903 71 73 0.0 0.9 0.00 0.00 0.00 93 1011.0
20260906115403 71 73 0.0 1.7 0.00 0.00 0.00 93 1010.9
20260906114903 70 73 0.0 1.7 0.00 0.00 0.00 93 1011.0
20260906113932 70 341 0.0 0.0 0.00 0.00 0.00 93 1010.8
20260906113418 70 342 0.0 0.0 0.00 0.00 0.00 93 1010.7
20260906112921 70 355 0.0 0.0 0.00 0.00 0.00 93 1010.7
20260906112441 70 355 0.0 0.0 0.00 0.00 0.00 93 1010.8
20260906111911 70 355 0.0 0.0 0.00 0.00 0.00 93 1010.8
20260906111410 70 355 0.0 0.9 0.00 0.00 0.00 93 1010.7
20260906110421 70 355 0.0 0.9 0.00 0.00 0.00 93 1010.7
20260906105908 70 355 0.0 0.9 0.00 0.00 0.00 93 1010.6
20260906105438 70 355 0.0 0.9 0.00 0.00 0.00 93 1010.5
20260906104921 70 355 0.9 1.7 0.00 0.00 0.00 93 1010.4
20260906104442 70 355 0.9 1.7 0.00 0.00 0.00 93 1010.4
20260906103935 70 342 0.9 1.7 0.00 0.00 0.00 93 1010.3
20260906103442 70 337 0.0 0.9 0.00 0.00 0.00 93 1010.2
20260906102903 70 337 0.9 0.9 0.00 0.00 0.00 93 1010.2
20260906102418 70 337 0.9 0.9 0.00 0.00 0.00 93 1010.2
20260906101905 71 337 0.0 0.9 0.00 0.00 0.00 93 1010.1
20260906101428 71 337 0.0 0.0 0.00 0.00 0.00 93 1010.1
20260906100408 71 337 0.0 0.0 0.00 0.00 0.00 93 1010.1
20260906095932 71 337 0.0 0.9 0.00 0.00 0.00 93 1010.0
20260906095407 71 337 0.0 0.9 0.00 0.00 0.00 92 1010.0
20260906094404 71 337 0.0 0.9 0.00 0.00 0.00 92 1010.0
20260906093925 71 337 0.0 0.0 0.00 0.00 0.00 92 1009.9
20260906093430 71 337 0.0 0.0 0.00 0.00 0.00 92 1009.8
20260906092930 71 337 0.0 0.0 0.00 0.00 0.00 92 1009.7
20260906092404 72 337 0.0 0.9 0.00 0.00 0.00 92 1009.7
20260906091944 72 337 0.0 1.7 0.00 0.00 0.00 92 1009.7
20260906091408 72 337 0.0 2.6 0.00 0.00 0.00 92 1009.7
20260906090940 72 324 1.7 2.6 0.00 0.00 0.00 92 1009.7
20260906090438 72 306 1.7 2.6 0.00 0.00 0.00 92 1009.7
20260906085428 72 334 0.9 0.9 0.00 0.00 0.00 92 1009.8
20260906084940 72 334 0.0 2.6 0.00 0.00 0.00 92 1009.7
20260906084406 72 331 0.9 2.6 0.00 0.00 0.00 92 1009.7
20260906083435 73 321 0.9 1.7 0.00 0.00 0.00 92 1009.7
20260906082924 73 321 0.0 0.9 0.00 0.00 0.00 92 1009.8
20260906082420 73 323 0.0 1.7 0.00 0.00 0.00 92 1009.7
20260906080928 72 335 0.9 0.9 0.00 0.00 0.00 92 1009.7
20260906075939 73 335 0.0 1.7 0.00 0.00 0.00 92 1009.8
20260906075419 73 335 0.0 1.7 0.00 0.00 0.00 92 1009.8
20260906074935 73 335 0.0 1.7 0.00 0.00 0.00 92 1009.8
20260906074427 73 336 0.9 1.7 0.00 0.00 0.00 92 1009.9
20260906073904 73 332 0.9 1.7 0.00 0.00 0.00 92 1009.9
20260906073445 73 338 0.9 1.7 0.00 0.00 0.00 92 1009.8
20260906072930 73 338 0.9 2.6 0.00 0.00 0.00 92 1010.0
20260906072414 73 328 0.9 2.6 0.00 0.00 0.00 92 1010.1
20260906071944 73 329 0.9 2.6 0.00 0.00 0.00 92 1010.1
20260906071416 73 321 1.7 2.6 0.00 0.00 0.00 92 1010.2
20260906070902 73 9 0.9 1.7 0.00 0.00 0.00 92 1010.2
20260906070426 73 9 0.0 0.9 0.00 0.00 0.00 92 1010.2
20260906065433 74 9 0.0 1.7 0.00 0.00 0.00 92 1010.2
20260906064907 74 9 0.0 1.7 0.00 0.00 0.00 92 1010.4
20260906064407 74 9 0.9 1.7 0.00 0.00 0.00 92 1010.6
20260906063911 74 9 0.9 1.7 0.00 0.00 0.00 92 1010.5
20260906063415 74 9 0.9 1.7 0.00 0.00 0.00 92 1010.4
20260906062930 74 9 0.0 0.9 0.00 0.00 0.00 92 1010.3
20260906062416 74 9 0.0 0.9 0.00 0.00 0.00 92 1010.3
20260906061402 74 9 0.0 0.9 0.00 0.00 0.00 92 1010.7
20260906060905 74 9 0.0 0.9 0.00 0.00 0.00 91 1010.8
20260906060406 74 9 0.0 2.6 0.00 0.00 0.00 91 1010.7
20260906055916 75 9 0.0 2.6 0.00 0.00 0.00 91 1010.8
20260906055418 75 5 1.7 2.6 0.00 0.00 0.00 91 1010.6
20260906054921 75 57 0.0 0.9 0.00 0.00 0.00 91 1010.6
20260906054445 75 57 0.0 0.9 0.00 0.00 0.00 91 1010.6
20260906053924 75 57 0.9 0.9 0.00 0.00 0.00 91 1010.7
20260906053443 75 57 0.0 1.7 0.00 0.00 0.00 91 1010.7
20260906052914 75 57 0.9 1.7 0.00 0.00 0.00 91 1010.6
20260906052418 76 349 0.9 1.7 0.00 0.00 0.00 90 1010.5
20260906051927 76 338 0.9 1.7 0.00 0.00 0.00 90 1010.5
20260906050932 76 338 0.0 1.7 0.00 0.00 0.00 90 1010.7
20260906050416 76 338 0.9 1.7 0.00 0.00 0.00 91 1010.8
20260906045902 76 337 0.9 1.7 0.00 0.00 0.00 91 1010.9
20260906045419 76 336 0.9 1.7 0.00 0.00 0.00 91 1010.8
20260906043914 77 350 0.0 0.0 0.00 0.00 0.00 90 1010.9
20260906043424 77 350 0.0 0.0 0.00 0.00 0.00 90 1011.0
20260906042935 77 350 0.0 0.9 0.00 0.00 0.00 90 1011.1
20260906042402 77 350 0.0 0.9 0.00 0.00 0.00 90 1011.2
20260906041933 78 350 0.0 1.7 0.00 0.00 0.00 91 1011.2
20260906041438 78 350 0.0 2.6 0.00 0.00 0.00 91 1011.2
20260906040940 78 347 0.9 2.6 0.00 0.00 0.00 91 1011.2
20260906040430 78 355 0.0 3.5 0.00 0.00 0.00 91 1011.2
20260906035904 79 52 0.9 3.5 0.00 0.00 0.00 91 1011.3
20260906035411 79 13 0.9 1.7 0.00 0.00 0.00 91 1011.3
20260906034942 79 331 0.0 1.7 0.00 0.00 0.00 91 1011.3
20260906034438 79 14 0.9 1.7 0.00 0.00 0.00 91 1011.3
20260906033942 79 45 0.0 0.9 0.00 0.00 0.00 91 1011.1
20260906033406 79 45 0.0 0.9 0.00 0.00 0.00 91 1011.0
20260906032903 80 45 0.9 0.9 0.00 0.00 0.00 91 1010.9
20260906032444 80 45 0.0 0.9 0.00 0.00 0.00 91 1010.8
20260906031408 80 45 0.9 0.9 0.00 0.00 0.00 90 1011.0
20260906030921 80 45 0.0 1.7 0.00 0.00 0.00 90 1011.0
20260906030408 80 45 0.0 1.7 0.00 0.00 0.00 90 1011.0
20260906025935 81 34 0.0 2.6 0.00 0.00 0.00 90 1011.2
20260906025442 81 33 0.9 3.5 0.00 0.00 0.00 89 1011.2
20260906024945 81 12 1.7 4.3 0.00 0.00 0.00 89 1011.1
20260906024434 82 329 0.9 6.1 0.00 0.00 0.00 88 1010.9
20260906023938 82 311 1.7 6.1 0.00 0.00 0.00 88 1010.8
20260906023435 82 297 3.5 7.0 0.00 0.00 0.00 88 1010.7
20260906022924 82 269 3.5 7.0 0.00 0.00 0.00 88 1010.6
20260906021931 82 231 1.7 3.5 0.00 0.00 0.00 88 1010.1
20260906020910 82 57 0.0 3.5 0.00 0.00 0.00 89 1010.0
20260906020420 82 231 0.9 6.1 0.00 0.00 0.00 89 1009.9
20260906015933 81 187 2.6 6.1 0.00 0.00 0.00 89 1009.7
20260906015419 82 155 1.7 4.3 0.00 0.00 0.00 89 1009.6
20260906014912 82 177 2.6 4.3 0.00 0.00 0.00 89 1010.1
20260906014412 82 216 1.7 2.6 0.00 0.00 0.00 88 1010.2
20260906013916 82 51 1.7 3.5 0.00 0.00 0.00 87 1009.9
20260906013412 83 48 2.6 5.2 0.00 0.00 0.00 86 1009.8
20260906012432 83 148 3.5 7.0 0.00 0.00 0.00 85 1009.0
20260906011932 83 163 2.6 4.3 0.00 0.00 0.00 85 1009.3
20260906011436 83 185 1.7 2.6 0.00 0.00 0.00 84 1009.8
20260906010935 83 217 0.9 4.3 0.00 0.00 0.00 84 1010.1
20260906005908 84 264 1.7 7.0 0.00 0.00 0.00 84 1010.6
20260906005435 84 265 2.6 7.0 0.00 0.00 0.00 84 1010.6
20260906004922 84 245 2.6 6.1 0.00 0.00 0.00 84 1010.4
20260906004410 84 273 2.6 6.1 0.00 0.00 0.00 84 1010.7
20260906003440 84 210 1.7 6.1 0.00 0.00 0.00 83 1010.4
20260906002925 84 192 2.6 6.1 0.00 0.00 0.00 83 1010.3
20260906001934 84 206 1.7 7.0 0.00 0.00 0.00 83 1010.4
20260906001413 84 176 2.6 6.1 0.00 0.00 0.00 84 1010.3
20260906000919 84 189 2.6 4.3 0.00 0.00 0.00 84 1010.6
20260906000413 84 182 1.7 4.3 0.00 0.00 0.00 83 1010.6
20260905235925 84 191 1.7 3.5 0.00 0.00 0.00 83 1010.6
20260905235444 85 187 1.7 4.3 0.00 0.00 0.00 83 1010.7
20260905234917 85 176 1.7 6.1 0.00 0.00 0.00 82 1010.6
20260905234413 85 162 1.7 6.1 0.00 0.00 0.00 82 1010.6
20260905233943 85 161 2.6 5.2 0.00 0.00 0.00 82 1010.6
20260905233417 85 200 1.7 5.2 0.00 0.00 0.00 81 1010.7
20260905232944 85 197 0.9 4.3 0.00 0.00 0.00 81 1010.8
20260905232410 86 192 1.7 4.3 0.00 0.00 0.00 80 1010.8
20260905231936 86 191 1.7 4.3 0.00 0.00 0.00 80 1010.6
20260905231416 86 182 1.7 4.3 0.00 0.00 0.00 80 1010.5
20260905230945 86 201 1.7 4.3 0.00 0.00 0.00 80 1010.4
20260905230435 86 171 1.7 5.2 0.00 0.00 0.00 79 1010.4
20260905225419 87 161 3.5 7.0 0.00 0.00 0.00 78 1010.6
20260905224936 87 164 2.6 7.8 0.00 0.00 0.00 77 1010.3
20260905223912 88 195 4.3 7.8 0.00 0.00 0.00 75 1010.4
20260905223403 88 196 4.3 7.8 0.00 0.00 0.00 75 1010.3
20260905222903 88 197 2.6 7.8 0.00 0.00 0.00 76 1010.4
20260905221943 88 180 4.3 9.6 0.00 0.00 0.00 75 1010.1
20260905221414 88 182 3.5 9.6 0.00 0.00 0.00 75 1010.1
20260905220946 89 183 6.1 9.6 0.00 0.00 0.00 75 1010.1
20260905220405 89 184 5.2 8.7 0.00 0.00 0.00 75 1010.1
20260905215901 89 215 4.3 8.7 0.00 0.00 0.00 75 1010.1
20260905215443 89 156 3.5 11.3 0.00 0.00 0.00 75 1010.0
20260905214440 90 156 4.3 10.4 0.00 0.00 0.00 74 1010.0
20260905213907 90 186 4.3 11.3 0.00 0.00 0.00 74 1010.1
20260905213402 90 187 5.2 11.3 0.00 0.00 0.00 73 1010.0
20260905212938 91 171 5.2 9.6 0.00 0.00 0.00 72 1010.1
20260905212441 91 172 4.3 9.6 0.00 0.00 0.00 73 1009.9
20260905211932 91 153 4.3 7.8 0.00 0.00 0.00 72 1009.9
20260905210909 92 169 4.3 8.7 0.00 0.00 0.00 70 1009.9
20260905210430 93 157 5.2 8.7 0.00 0.00 0.00 70 1009.7
20260905205903 94 189 3.5 7.8 0.00 0.00 0.00 67 1009.7
20260905205405 94 170 1.7 3.5 0.00 0.00 0.00 58 1009.5
20260905204426 94 309 0.9 3.5 0.00 0.00 0.00 56 1009.5
20260905203922 94 289 1.7 3.5 0.00 0.00 0.00 56 1009.5
20260905202925 94 43 1.7 3.5 0.00 0.00 0.00 56 1009.5
20260905202443 94 254 1.7 3.5 0.00 0.00 0.00 56 1009.6
20260905201419 95 280 2.6 5.2 0.00 0.00 0.00 57 1009.4
20260905200938 95 275 1.7 4.3 0.00 0.00 0.00 56 1009.5
20260905200435 94 290 2.6 3.5 0.00 0.00 0.00 59 1009.7
20260905195945 94 307 1.7 4.3 0.00 0.00 0.00 59 1009.5
20260905195419 94 297 0.9 7.0 0.00 0.00 0.00 57 1009.7
20260905194911 94 304 2.6 7.0 0.00 0.00 0.00 60 1009.9
20260905194433 94 348 2.6 7.0 0.00 0.00 0.00 59 1009.9
20260905193936 94 281 2.6 6.1 0.00 0.00 0.00 57 1009.9
20260905192907 94 304 2.6 7.0 0.00 0.00 0.00 58 1010.1
20260905192421 94 293 4.3 7.0 0.00 0.00 0.00 59 1010.2
20260905191924 93 306 1.7 5.2 0.00 0.00 0.00 59 1010.2
20260905191428 93 245 0.9 3.5 0.00 0.00 0.00 58 1010.3
20260905190915 93 210 0.9 3.5 0.00 0.00 0.00 60 1010.4
20260905185923 93 278 2.6 3.5 0.00 0.00 0.00 62 1010.7
20260905185409 93 287 0.9 6.1 0.00 0.00 0.00 60 1010.7
20260905184934 93 332 2.6 6.1 0.00 0.00 0.00 60 1010.7
20260905184427 93 292 2.6 6.1 0.00 0.00 0.00 62 1010.9
20260905183912 93 305 1.7 8.7 0.00 0.00 0.00 61 1010.9
20260905183429 92 298 5.2 8.7 0.00 0.00 0.00 61 1011.0
20260905182442 92 353 3.5 7.0 0.00 0.00 0.00 63 1011.0
20260905181924 93 252 1.7 7.8 0.00 0.00 0.00 62 1011.1
20260905181410 93 268 4.3 7.8 0.00 0.00 0.00 61 1011.2
20260905180926 93 295 2.6 6.1 0.00 0.00 0.00 61 1011.2
20260905180413 92 283 2.6 6.1 0.00 0.00 0.00 65 1011.3
20260905175914 92 230 3.5 6.1 0.00 0.00 0.00 64 1011.5
20260905175423 92 269 1.7 5.2 0.00 0.00 0.00 64 1011.5
20260905174932 93 250 2.6 3.5 0.00 0.00 0.00 58 1011.6
20260905173425 91 263 0.9 7.0 0.00 0.00 0.00 64 1011.8
20260905172937 92 265 4.3 7.0 0.00 0.00 0.00 66 1011.7
20260905172414 91 275 2.6 6.1 0.00 0.00 0.00 64 1011.8
20260905171418 91 245 2.6 6.1 0.00 0.00 0.00 65 1011.9
20260905170915 91 250 1.7 7.0 0.00 0.00 0.00 65 1012.1
20260905165432 91 203 1.7 7.0 0.00 0.00 0.00 66 1012.2
20260905164916 91 260 1.7 6.1 0.00 0.00 0.00 66 1012.4
20260905164426 91 260 1.7 7.8 0.00 0.00 0.00 65 1012.4
20260905163932 91 274 3.5 7.8 0.00 0.00 0.00 67 1012.5
20260905163433 90 291 4.3 7.0 0.00 0.00 0.00 68 1012.7
20260905162945 91 287 2.6 4.3 0.00 0.00 0.00 67 1012.7
20260905161902 90 286 2.6 5.2 0.00 0.00 0.00 70 1012.9
20260905160905 90 227 0.9 7.0 0.00 0.00 0.00 70 1013.2
20260905155911 89 282 1.7 6.1 0.00 0.00 0.00 69 1013.4
20260905154401 89 251 3.5 7.0 0.00 0.00 0.00 72 1013.6
20260905153905 89 262 2.6 7.8 0.00 0.00 0.00 71 1013.6
20260905152936 88 279 3.5 7.0 0.00 0.00 0.00 74 1013.6
20260905152440 88 263 4.3 7.0 0.00 0.00 0.00 74 1013.6
20260905151918 87 285 1.7 7.0 0.00 0.00 0.00 74 1013.6
20260905151444 88 292 3.5 7.0 0.00 0.00 0.00 74 1013.7
20260905150404 86 275 1.7 6.1 0.00 0.00 0.00 77 1013.7
20260905145938 86 257 3.5 6.1 0.00 0.00 0.00 77 1013.7
20260905145441 87 278 2.6 6.1 0.00 0.00 0.00 77 1013.6
20260905144906 86 273 1.7 7.0 0.00 0.00 0.00 77 1013.7
20260905144413 86 320 2.6 7.0 0.00 0.00 0.00 76 1013.7
20260905143940 87 291 3.5 6.1 0.00 0.00 0.00 76 1013.6
20260905143432 86 283 2.6 6.1 0.00 0.00 0.00 80 1013.5
20260905141920 85 266 3.5 7.0 0.00 0.00 0.00 79 1013.6
20260905141423 85 265 4.3 7.0 0.00 0.00 0.00 80 1013.5
20260905140942 86 270 2.6 6.1 0.00 0.00 0.00 79 1013.7
20260905140418 85 281 2.6 7.0 0.00 0.00 0.00 80 1013.6
20260905135903 85 297 2.6 7.0 0.00 0.00 0.00 81 1013.7
20260905134932 84 284 2.6 7.0 0.00 0.00 0.00 83 1013.7
20260905134404 84 281 3.5 7.0 0.00 0.00 0.00 83 1013.9
20260905133935 84 288 3.5 7.0 0.00 0.00 0.00 84 1013.9
20260905133416 84 294 3.5 7.0 0.00 0.00 0.00 84 1014.0
20260905132915 84 292 3.5 6.1 0.00 0.00 0.00 85 1014.0
20260905131928 83 275 2.6 5.2 0.00 0.00 0.00 87 1014.0
20260905130924 82 290 2.6 7.8 0.00 0.00 0.00 88 1014.1
20260905130407 82 279 1.7 7.0 0.00 0.00 0.00 89 1014.1
20260905125937 81 274 2.6 6.1 0.00 0.00 0.00 89 1014.1
20260905125445 81 293 1.7 5.2 0.00 0.00 0.00 91 1014.0
20260905124946 80 291 0.9 4.3 0.00 0.00 0.00 92 1014.0
20260905124409 80 289 1.7 4.3 0.00 0.00 0.00 92 1013.9
20260905123401 78 277 0.9 3.5 0.00 0.00 0.00 93 1013.8
20260905122912 78 295 1.7 3.5 0.00 0.00 0.00 93 1013.8
20260905122445 77 291 1.7 5.2 0.00 0.00 0.00 93 1013.8
20260905121944 77 291 1.7 5.2 0.00 0.00 0.00 93 1013.7
20260905121430 76 266 0.9 2.6 0.00 0.00 0.00 93 1013.7
20260905120928 76 290 0.0 1.7 0.00 0.00 0.00 93 1013.7